timestamp,wind_dir_avg,wind_spd_avg,wind_spd_max_dir,wind_spd_gust,battery_voltage,lat,long
2021-05-18 00:04:01+00:00,212.0,3.67,211.0,4.05,13.21,47.59359,-54.27349
2021-05-18 00:14:01+00:00,225.0,2.67,229.0,3.09,12.65,47.59359,-54.27349
2021-05-18 00:24:01+00:00,221.0,3.0,228.0,3.62,12.65,47.59359,-54.27349
2021-05-18 00:34:01+00:00,219.0,3.3,224.0,3.68,12.65,47.59359,-54.27349
2021-05-18 00:44:01+00:00,216.0,3.51,219.0,3.93,12.65,47.59359,-54.27349
2021-05-18 00:54:01+00:00,213.0,4.04,215.0,4.4,12.65,47.59359,-54.27349
2021-05-18 01:04:01+00:00,212.0,2.95,213.0,3.38,12.65,47.59359,-54.27349
2021-05-18 01:14:01+00:00,228.0,3.71,229.0,3.99,12.57,47.59359,-54.27349
2021-05-18 01:24:01+00:00,219.0,3.19,223.0,3.53,12.57,47.59359,-54.27349
2021-05-18 01:34:01+00:00,230.0,3.02,230.0,3.45,12.57,47.59359,-54.27349
2021-05-18 01:44:01+00:00,251.0,3.19,252.0,3.55,12.57,47.59359,-54.27349
2021-05-18 01:54:01+00:00,241.0,4.03,243.0,4.41,12.57,47.59359,-54.27349
2021-05-18 02:04:01+00:00,225.0,3.49,228.0,3.96,12.57,47.59359,-54.27349
2021-05-18 02:14:00+00:00,220.0,2.97,225.0,3.57,12.57,47.59359,-54.27349
2021-05-18 02:24:00+00:00,233.0,2.52,230.0,2.95,12.57,47.59359,-54.27349
2021-05-18 02:34:00+00:00,225.0,2.06,227.0,2.54,12.57,47.59359,-54.27349
2021-05-18 02:44:00+00:00,222.0,2.49,217.0,2.96,12.57,47.59359,-54.27349
2021-05-18 02:54:00+00:00,213.0,3.35,214.0,3.72,12.57,47.59359,-54.27349
2021-05-18 03:04:00+00:00,224.0,3.16,227.0,3.97,12.57,47.59359,-54.27349
2021-05-18 03:14:00+00:00,229.0,2.69,229.0,3.23,12.57,47.59359,-54.27349
2021-05-18 03:24:00+00:00,230.0,2.75,233.0,3.21,12.57,47.59359,-54.27349
2021-05-18 03:34:00+00:00,285.0,1.48,272.0,1.66,12.57,47.59359,-54.27349
2021-05-18 03:44:00+00:00,269.0,1.2,267.0,1.45,12.57,47.59359,-54.27349
2021-05-18 03:54:00+00:00,263.0,1.33,266.0,1.6,12.57,47.59359,-54.27349
2021-05-18 04:04:00+00:00,255.0,1.49,254.0,1.93,12.57,47.59359,-54.27349
2021-05-18 04:14:01+00:00,258.0,1.42,256.0,1.73,12.49,47.59359,-54.27349
2021-05-18 04:24:01+00:00,261.0,1.81,254.0,2.2,12.49,47.59359,-54.27349
2021-05-18 04:34:01+00:00,251.0,2.34,256.0,2.69,12.49,47.59359,-54.27349
2021-05-18 04:44:01+00:00,260.0,2.4,262.0,2.62,12.49,47.59359,-54.27349
2021-05-18 04:54:01+00:00,255.0,2.55,253.0,2.96,12.49,47.59359,-54.27349
2021-05-18 05:04:01+00:00,239.0,2.16,250.0,2.52,12.49,47.59359,-54.27349
2021-05-18 05:14:00+00:00,250.0,3.5,253.0,3.75,12.49,47.59359,-54.27349
2021-05-18 05:24:00+00:00,258.0,2.89,251.0,3.37,12.49,47.59359,-54.27349
2021-05-18 05:34:00+00:00,265.0,3.57,266.0,3.81,12.49,47.59359,-54.27349
2021-05-18 05:44:00+00:00,243.0,3.52,244.0,4.13,12.49,47.59359,-54.27349
2021-05-18 05:54:00+00:00,232.0,4.94,233.0,5.31,12.49,47.59359,-54.27349
2021-05-18 06:04:00+00:00,235.0,4.56,238.0,4.97,12.49,47.59359,-54.27349
2021-05-18 06:14:00+00:00,227.0,4.67,228.0,5.48,12.41,47.59359,-54.27349
2021-05-18 06:24:00+00:00,233.0,4.4,227.0,4.99,12.41,47.59359,-54.27349
2021-05-18 06:34:00+00:00,240.0,5.05,248.0,5.98,12.41,47.59359,-54.27349
2021-05-18 06:44:00+00:00,238.0,5.28,240.0,5.84,12.41,47.59359,-54.27349
2021-05-18 06:54:00+00:00,236.0,5.61,235.0,5.87,12.41,47.59359,-54.27349
2021-05-18 07:04:00+00:00,245.0,5.28,248.0,6.35,12.41,47.59359,-54.27349
2021-05-18 07:14:00+00:00,243.0,5.44,243.0,6.32,12.41,47.59359,-54.27349
2021-05-18 07:24:00+00:00,237.0,5.27,237.0,6.15,12.41,47.59359,-54.27349
2021-05-18 07:34:00+00:00,241.0,5.4,245.0,5.86,12.41,47.59359,-54.27349
2021-05-18 07:44:00+00:00,242.0,4.81,242.0,5.42,12.41,47.59359,-54.27349
2021-05-18 07:54:00+00:00,243.0,3.85,238.0,4.33,12.41,47.59359,-54.27349
2021-05-18 08:04:00+00:00,247.0,3.57,241.0,4.05,12.41,47.59359,-54.27349
2021-05-18 08:14:00+00:00,229.0,3.51,227.0,4.0,12.41,47.59359,-54.27349
2021-05-18 08:24:00+00:00,231.0,3.2,236.0,3.57,12.41,47.59359,-54.27349
2021-05-18 08:34:00+00:00,227.0,2.82,226.0,3.1,12.41,47.59359,-54.27349
2021-05-18 08:44:00+00:00,235.0,2.77,236.0,3.17,12.41,47.59359,-54.27349
2021-05-18 08:54:00+00:00,234.0,3.66,235.0,4.06,12.41,47.59359,-54.27349
2021-05-18 09:04:00+00:00,243.0,3.48,242.0,3.82,12.41,47.59359,-54.27349
2021-05-18 09:14:01+00:00,261.0,3.59,264.0,3.84,12.57,47.59359,-54.27349
2021-05-18 09:24:01+00:00,229.0,3.73,231.0,4.15,12.57,47.59359,-54.27349
2021-05-18 09:34:01+00:00,226.0,3.88,228.0,4.25,12.57,47.59359,-54.27349
2021-05-18 09:44:01+00:00,219.0,3.39,220.0,4.22,12.57,47.59359,-54.27349
2021-05-18 09:54:01+00:00,235.0,4.38,237.0,4.91,12.57,47.59359,-54.27349
2021-05-18 10:04:01+00:00,241.0,4.18,233.0,5.09,12.57,47.59359,-54.27349
2021-05-18 10:14:00+00:00,243.0,4.29,247.0,4.92,13.44,47.59359,-54.27349
2021-05-18 10:24:00+00:00,241.0,4.51,245.0,5.15,13.44,47.59359,-54.27349
2021-05-18 10:34:00+00:00,233.0,5.14,239.0,5.99,13.44,47.59359,-54.27349
2021-05-18 10:44:00+00:00,230.0,4.89,231.0,5.48,13.44,47.59359,-54.27349
2021-05-18 10:54:00+00:00,232.0,5.12,238.0,6.67,13.44,47.59359,-54.27349
2021-05-18 11:04:00+00:00,226.0,3.96,228.0,4.42,13.44,47.59359,-54.27349
2021-05-18 11:14:01+00:00,218.0,4.18,217.0,4.71,13.68,47.59359,-54.27349
2021-05-18 11:24:01+00:00,217.0,3.67,215.0,4.07,13.68,47.59359,-54.27349
2021-05-18 11:34:01+00:00,209.0,3.56,217.0,4.02,13.68,47.59359,-54.27349
2021-05-18 11:44:01+00:00,199.0,4.95,201.0,5.41,13.68,47.59359,-54.27349
2021-05-18 11:54:01+00:00,203.0,6.08,202.0,6.4,13.68,47.59359,-54.27349
2021-05-18 12:04:01+00:00,201.0,6.01,203.0,6.39,13.68,47.59359,-54.27349
2021-05-18 12:14:01+00:00,204.0,6.41,203.0,6.84,13.68,47.59359,-54.27349
2021-05-18 12:24:01+00:00,205.0,6.36,206.0,7.35,13.68,47.59359,-54.27349
2021-05-18 12:34:01+00:00,203.0,7.68,206.0,8.62,13.68,47.59359,-54.27349
2021-05-18 12:44:01+00:00,205.0,7.75,210.0,8.66,13.68,47.59359,-54.27349
2021-05-18 12:54:01+00:00,203.0,7.54,202.0,7.94,13.68,47.59359,-54.27349
2021-05-18 13:04:01+00:00,202.0,8.0,205.0,8.46,13.68,47.59359,-54.27349
2021-05-18 13:14:01+00:00,205.0,8.39,210.0,9.03,13.68,47.59359,-54.27349
2021-05-18 13:24:01+00:00,210.0,9.29,212.0,9.99,13.68,47.59359,-54.27349
2021-05-18 13:34:01+00:00,210.0,9.72,212.0,10.75,13.68,47.59359,-54.27349
2021-05-18 13:44:01+00:00,207.0,9.29,210.0,10.21,13.68,47.59359,-54.27349
2021-05-18 13:54:01+00:00,211.0,8.12,213.0,9.01,13.68,47.59359,-54.27349
2021-05-18 14:04:01+00:00,214.0,8.2,217.0,8.85,13.68,47.59359,-54.27349
2021-05-18 14:14:01+00:00,214.0,8.58,215.0,9.06,14.16,47.59359,-54.27349
2021-05-18 14:24:01+00:00,215.0,8.2,210.0,9.4,14.16,47.59359,-54.27349
2021-05-18 14:34:01+00:00,213.0,8.4,213.0,9.15,14.16,47.59359,-54.27349
2021-05-18 14:44:01+00:00,215.0,8.59,218.0,9.56,14.16,47.59359,-54.27349
2021-05-18 14:54:01+00:00,216.0,9.13,222.0,10.22,14.16,47.59359,-54.27349
2021-05-18 15:04:01+00:00,212.0,9.29,213.0,10.56,14.16,47.59359,-54.27349
2021-05-18 15:14:01+00:00,213.0,9.99,214.0,11.66,14.24,47.59359,-54.27349
2021-05-18 15:24:01+00:00,213.0,9.44,214.0,10.11,14.24,47.59359,-54.27349
2021-05-18 15:34:01+00:00,210.0,9.44,208.0,10.17,14.24,47.59359,-54.27349
2021-05-18 15:44:01+00:00,207.0,9.17,210.0,10.03,14.24,47.59359,-54.27349
2021-05-18 15:54:01+00:00,212.0,10.12,213.0,11.38,14.24,47.59359,-54.27349
2021-05-18 16:04:01+00:00,212.0,10.6,211.0,11.55,14.24,47.59359,-54.27349
2021-05-18 16:14:01+00:00,214.0,10.94,212.0,11.88,14.24,47.59359,-54.27349
2021-05-18 16:24:01+00:00,207.0,9.48,212.0,11.17,14.24,47.59359,-54.27349
2021-05-18 16:34:01+00:00,210.0,10.26,211.0,11.6,14.24,47.59359,-54.27349
2021-05-18 16:44:01+00:00,212.0,10.41,215.0,11.58,14.24,47.59359,-54.27349
2021-05-18 16:54:01+00:00,208.0,9.99,202.0,11.34,14.24,47.59359,-54.27349
2021-05-18 17:04:01+00:00,207.0,9.56,209.0,10.77,14.24,47.59359,-54.27349
2021-05-18 17:14:01+00:00,206.0,10.3,205.0,11.81,13.84,47.59359,-54.27349
2021-05-18 17:24:01+00:00,206.0,10.0,205.0,10.91,13.84,47.59359,-54.27349
2021-05-18 17:34:01+00:00,208.0,10.32,212.0,11.55,13.84,47.59359,-54.27349
2021-05-18 17:44:01+00:00,213.0,10.32,223.0,11.8,13.84,47.59359,-54.27349
2021-05-18 17:54:01+00:00,209.0,9.69,210.0,10.51,13.84,47.59359,-54.27349
2021-05-18 18:04:01+00:00,204.0,9.15,210.0,10.49,13.84,47.59359,-54.27349
2021-05-18 18:14:01+00:00,202.0,9.9,203.0,10.73,13.76,47.59359,-54.27349
2021-05-18 18:24:01+00:00,203.0,9.25,207.0,10.35,13.76,47.59359,-54.27349
2021-05-18 18:34:01+00:00,206.0,8.41,207.0,9.22,13.76,47.59359,-54.27349
2021-05-18 18:44:01+00:00,199.0,8.83,202.0,9.76,13.76,47.59359,-54.27349
2021-05-18 18:54:01+00:00,201.0,8.97,206.0,10.36,13.76,47.59359,-54.27349
2021-05-18 19:04:01+00:00,196.0,8.82,199.0,9.72,13.76,47.59359,-54.27349
2021-05-18 19:14:01+00:00,201.0,9.08,206.0,10.11,13.76,47.59359,-54.27349
2021-05-18 19:24:01+00:00,201.0,9.58,204.0,10.71,13.76,47.59359,-54.27349
2021-05-18 19:34:01+00:00,207.0,9.08,207.0,10.23,13.76,47.59359,-54.27349
2021-05-18 19:44:01+00:00,208.0,9.24,208.0,10.21,13.76,47.59359,-54.27349
2021-05-18 19:54:01+00:00,209.0,9.09,210.0,10.18,13.76,47.59359,-54.27349
2021-05-18 20:04:01+00:00,210.0,9.74,213.0,10.83,13.76,47.59359,-54.27349
2021-05-18 20:14:01+00:00,215.0,9.05,215.0,10.38,13.84,47.59359,-54.27349
2021-05-18 20:24:01+00:00,217.0,9.03,211.0,10.52,13.84,47.59359,-54.27349
2021-05-18 20:34:01+00:00,215.0,8.56,218.0,9.48,13.84,47.59359,-54.27349
2021-05-18 20:44:01+00:00,217.0,8.31,217.0,9.46,13.84,47.59359,-54.27349
2021-05-18 20:54:01+00:00,219.0,8.76,222.0,9.73,13.84,47.59359,-54.27349
2021-05-18 21:04:01+00:00,221.0,8.41,221.0,9.4,13.84,47.59359,-54.27349
2021-05-18 21:14:01+00:00,219.0,8.41,217.0,9.43,13.76,47.59359,-54.27349
2021-05-18 21:24:01+00:00,216.0,8.3,216.0,9.11,13.76,47.59359,-54.27349
2021-05-18 21:34:01+00:00,218.0,7.53,217.0,8.9,13.76,47.59359,-54.27349
2021-05-18 21:44:01+00:00,217.0,6.0,217.0,7.03,13.76,47.59359,-54.27349
2021-05-18 21:54:01+00:00,223.0,6.41,225.0,7.45,13.76,47.59359,-54.27349
2021-05-18 22:04:01+00:00,219.0,7.07,227.0,8.23,13.76,47.59359,-54.27349
2021-05-18 22:14:01+00:00,216.0,7.49,216.0,8.2,13.68,47.59359,-54.27349
2021-05-18 22:24:01+00:00,223.0,7.02,221.0,7.83,13.68,47.59359,-54.27349
2021-05-18 22:34:01+00:00,222.0,6.67,219.0,7.38,13.68,47.59359,-54.27349
2021-05-18 22:44:01+00:00,229.0,5.51,229.0,6.21,13.68,47.59359,-54.27349
2021-05-18 22:54:01+00:00,227.0,5.68,227.0,6.37,13.68,47.59359,-54.27349
2021-05-18 23:04:01+00:00,241.0,8.83,237.0,9.64,13.68,47.59359,-54.27349
2021-05-18 23:14:01+00:00,237.0,7.17,234.0,8.64,13.21,47.59359,-54.27349
2021-05-18 23:24:01+00:00,231.0,5.53,236.0,6.21,13.21,47.59359,-54.27349
2021-05-18 23:34:01+00:00,234.0,5.82,237.0,6.53,13.21,47.59359,-54.27349
2021-05-18 23:44:01+00:00,243.0,6.41,247.0,8.25,13.21,47.59359,-54.27349
2021-05-18 23:54:01+00:00,242.0,6.51,248.0,8.68,13.21,47.59359,-54.27349
